Notices

What's New in latest Release from April 7th, 2021:

- Updated Glossary, including Speed of Maximum Gust, and Total Hourly Precipitation

- Updated national and regional climate services offices contacts and prices information

- Addition of station inventory lists for 1981-2010, 1971-2000, and 1961-1990 Normals.

If you haven't already, please take our survey and provide feedback about our website: https://eccc.sondage-survey.ca/f/LanguageSelection.aspx?s=442ca660-fcf1-47c0-95a9-59707d6fd709

Hourly Data Report for January 19, 2005

SHERBROOKE A
QUEBEC

45°26'00.000" N
71°41'00.000" W
241.40 m
7028124
71610
YSC

Download Data

Hourly Data (January 2005)
Hourly Data Report for January 19, 2005
TIME
LST
Temp Definition
°C
Dew Point Definition
°C
Rel Hum Definition
%
Precip. Amount Definition
mm

Wind Dir Definition
10's deg

Wind Spd Definition
km/h
Visibility Definition
km
Stn Press Definition
kPa
Hmdx Definition


Wind Chill Definition


Weather Definition


00:00 -26.0 -31.2 62   12 7 15.0 100.36   -33  
01:00 -26.2 -31.4 62   11 6 15.0 100.28   -32  
02:00 -26.3 -31.3 63   10 6 15.0 100.19   -32  
03:00 -26.5 -31.3 64   8 6 15.0 100.05   -32  
04:00 -26.4 -31.4 63   9 4 15.0 99.95   -31  
05:00 -26.5 -31.2 64   7 4 15.0 99.87   -31  
06:00 -25.8 -31.0 62     0 15.0 99.75      
07:00 -25.2 -30.6 61   9 6 15.0 99.60   -31  
08:00 -24.3 -29.8 60   7 7 24.1 99.48   -31 Mostly Cloudy
09:00 -23.0 -29.0 58   8 11 24.1 99.33   -31 Mostly Cloudy
10:00 -21.2 -26.9 60   5 6 24.1 99.22   -26 Cloudy
11:00 -18.3 -24.6 58   9 4 24.1 99.05   -22 Cloudy
12:00 -14.8 -21.8 55   9 6 24.1 98.86   -19 Cloudy
13:00 -10.4 -19.5 47   14 13 24.1 98.68   -17 Cloudy
14:00 -9.7 -20.3 42   19 19 24.1 98.57   -17 Cloudy
15:00 -9.6 -19.2 45   15 15 24.1 98.45   -16 Cloudy
16:00 -9.3 -20.2 41   17 15 24.1 98.43   -16 Cloudy
17:00 -9.7 -17.1 55   19 28 4.8 98.41   -19 Snow,Blowing Snow
18:00 -10.2 -14.7 70   20 13 8.0 98.37   -16 Snow
19:00 -10.3 -14.1 74   17 17 4.8 98.32   -18 Snow
20:00 -10.4 -13.4 79   18 7 1.9 98.25   -14 Snow
21:00 -10.4 -12.6 84   20 6 1.1 98.20   -14 Snow
22:00 -10.3 -12.2 86   15 4 1.1 98.13   -13 Snow
23:00 -10.6 -12.5 86     0 3.7 98.07     Snow

Notes on Data Quality.

Legend

  • E = Estimated
  • M = Missing
  • NA = Not Available*
  • [empty] = Indicates an unobserved value
Date modified: